This is the latest recevied weather packets stored in our database for station/object W7PLC. If no packets are shown the sender has not sent any weather packets the latest 10 day(s).
| Time | Temp. | Humidity | Pressure | Rain* | Wind** | Luminosity | Snow |
|---|---|---|---|---|---|---|---|
| 1777927487 | 25.56° C | 55% | 1009.3 hPa | 0 mm | - | 642 W/m² | - |
| 1777927185 | 27.22° C | 51% | 1009.5 hPa | 0 mm | - | 680 W/m² | - |
| 1777926883 | 27.22° C | 50% | 1009.4 hPa | 0 mm | - | 657 W/m² | - |
| 1777926579 | 27.78° C | 49% | 1009.5 hPa | 0 mm | - | 711 W/m² | - |
| 1777926275 | 27.22° C | 52% | 1009.5 hPa | 0 mm | - | 700 W/m² | - |
| 1777925972 | 27.22° C | 52% | 1009.4 hPa | 0 mm | - | 665 W/m² | - |
| 1777925670 | 25.56° C | 54% | 1009.4 hPa | 0 mm | - | 673 W/m² | - |
| 1777925367 | 26.11° C | 55% | 1009.7 hPa | 0 mm | - | 583 W/m² | - |
| 1777925064 | 26.67° C | 52% | 1009.7 hPa | 0 mm | - | 623 W/m² | - |
| 1777924760 | 26.67° C | 53% | 1009.7 hPa | 0 mm | - | 651 W/m² | - |
| 1777924456 | 25.56° C | 55% | 1009.6 hPa | 0 mm | - | 660 W/m² | - |
| 1777924153 | 27.22° C | 51% | 1009.7 hPa | 0 mm | - | 610 W/m² | - |
| 1777923849 | 26.11° C | 53% | 1009.5 hPa | 0 mm | - | 592 W/m² | - |
| 1777923545 | 24.44° C | 57% | 1009.6 hPa | 0 mm | - | 609 W/m² | - |
| 1777923242 | 25.56° C | 54% | 1009.4 hPa | 0 mm | - | 582 W/m² | - |
| 1777922941 | 25.56° C | 54% | 1009.7 hPa | 0 mm | - | 520 W/m² | - |
| 1777922638 | 26.11° C | 52% | 1009.6 hPa | 0 mm | - | 606 W/m² | - |
| 1777922336 | 24.44° C | 55% | 1009.7 hPa | 0 mm | - | 624 W/m² | - |
| 1777922034 | 23.89° C | 56% | 1009.9 hPa | 0 mm | - | 601 W/m² | - |
| 1777921729 | 24.44° C | 55% | 1009.9 hPa | 0 mm | - | 624 W/m² | - |
| 1777921425 | 25° C | 55% | 1010 hPa | 0 mm | - | 612 W/m² | - |
| 1777921122 | 23.89° C | 59% | 1010.1 hPa | 0 mm | - | 587 W/m² | - |
| 1777920819 | 24.44° C | 56% | 1010 hPa | 0 mm | - | 589 W/m² | - |
| 1777920515 | 25° C | 56% | 1010.1 hPa | 0 mm | - | 643 W/m² | - |
| 1777920211 | 24.44° C | 56% | 1010.1 hPa | 0 mm | - | 649 W/m² | - |
* Rain latest hour (hover to see other rain measurements)
** Current wind speed in m/s (hover to see current wind gust speed)